Overview Statistics Trail Chart Weather Telemetry Raw packets
 

This is the latest recevied weather packets stored in our database for station/object DF7ER-12. If no packets are shown the sender has not sent any weather packets the latest 10 day(s).

<< 18 19 20 21 22 23 24 >>
Time Temp. Humidity Pressure Rain* Wind** Luminosity Snow
1788545494 21.11° C 100% 998.4 hPa - - - -
1788545194 21.11° C 100% 998.1 hPa - - - -
1788544894 21.11° C 99% 998.2 hPa - - - -
1788544594 21.67° C 98% 998.1 hPa - - - -
1788544294 21.11° C 98% 997.9 hPa - - - -
1788543994 21.67° C 98% 997.8 hPa - - - -
1788543695 21.67° C 97% 997.7 hPa - - - -
1788543394 21.67° C 100% 997.5 hPa - - - -
1788543094 21.11° C 100% 997.5 hPa - - - -
1788542794 21.67° C 99% 997.6 hPa - - - -
1788542494 21.11° C 100% 997.3 hPa - - - -
1788542194 21.11° C 100% 997.1 hPa - - - -
1788541894 21.67° C 100% 997.2 hPa - - - -
1788541594 21.67° C 100% 997.1 hPa - - - -
1788541294 21.11° C 100% 997.1 hPa - - - -
1788540994 21.11° C 100% 997.1 hPa - - - -
1788540694 21.67° C 100% 997.1 hPa - - - -
1788540394 21.67° C 100% 997.1 hPa - - - -
1788540094 21.67° C 100% 997 hPa - - - -
1788539794 21.67° C 100% 996.9 hPa - - - -
1788539494 21.11° C 100% 996.9 hPa - - - -
1788539194 22.22° C 97% 996.8 hPa - - - -
1788538894 22.22° C 98% 996.8 hPa - - - -
1788538594 21.67° C 100% 996.7 hPa - - - -
1788538294 22.22° C 96% 996.7 hPa - - - -

* Rain since midnight (hover to see other rain measurements)
** Current wind speed in m/s (hover to see current wind gust speed)